Watford City, ND

2:34 AM CST on November 20, 2017 (GMT -0600)
Watford City

Weather History for KS25 - September, 2013

Change the Weather History Date:

Saturday, September 14, 2013

  Actual Average (KISN) Record (KISN)
Temperature  
Mean Temperature 62 °F -  
Max Temperature 77 °F 70 °F 94 °F (1946)
Min Temperature 48 °F 43 °F 22 °F (1993)
Degree Days  
Heating Degree Days 2    
Growing Degree Days 12 (Base 50)    
Moisture  
Dew Point 54 °F    
Average Humidity 70    
Maximum Humidity 94    
Minimum Humidity 49    
Precipitation  
Precipitation 0.00 in - - ()
Sea Level Pressure  
Sea Level Pressure 29.87 in    
Wind  
Wind Speed 8 mph (ENE)    
Max Wind Speed 21 mph    
Max Gust Speed 31 mph    
Visibility 10 miles    
Events Rain    
Averages and records for this station are not official NWS values.
T = Trace of Precipitation, MM = Missing Value Source: NWS Daily Summary

Daily Weather History Graph

Daily Weather History Graph

Search for Another Location

Airport or City:

Trip Planner

Search our weather history database for the weather conditions in past years. The results will help you decide how hot, cold, wet, or windy it might be!

Date:

Astronomy

Sep. 14, 2013 Rise Set
Actual Time 7:29 AM CDT 8:06 PM CDT
Civil Twilight 6:58 AM CDT 8:37 PM CDT
Nautical Twilight 6:21 AM CDT 9:14 PM CDT
Astronomical Twilight 5:42 AM CDT 9:53 PM CDT
Moon 5:06 PM CDT (9/14) 1:45 AM CDT (9/14)
Length of Visible Light 13h 39m
Length of Day
12h 37m
Waxing Gibbous, 72% of the Moon is Illuminated
Sep 14
Waxing Gibbous
Sep 19
Full
Sep 26
Last Quarter
Oct 4
New
Oct 11
First Quarter

Hourly Weather History & Observations

Time (CDT) Temp. Dew Point Humidity Pressure Visibility Wind Dir Wind Speed Gust Speed Precip Events Conditions
12:15 AM 68.0 °F 53.6 °F 60% 29.80 in 10.0 mi SSE 10.4 mph - N/A   Clear
12:35 AM 68.0 °F 53.6 °F 60% 29.80 in 10.0 mi SE 8.1 mph - N/A   Clear
12:55 AM 66.2 °F 53.6 °F 64% 29.79 in 10.0 mi SSE 6.9 mph - N/A   Clear
1:15 AM 66.2 °F 55.4 °F 68% 29.79 in 10.0 mi SSE 5.8 mph - N/A   Clear
1:35 AM 66.2 °F 55.4 °F 68% 29.79 in 10.0 mi South 3.5 mph - N/A   Clear
1:55 AM 64.4 °F 55.4 °F 73% 29.79 in 10.0 mi SSE 5.8 mph - N/A   Clear
2:15 AM 64.4 °F 55.4 °F 73% 29.79 in 10.0 mi SSE 6.9 mph - N/A   Clear
2:35 AM 64.4 °F 55.4 °F 73% 29.78 in 10.0 mi SSE 8.1 mph - N/A   Clear
2:55 AM 64.4 °F 55.4 °F 73% 29.78 in 10.0 mi SSE 6.9 mph - N/A   Clear
3:15 AM 62.6 °F 55.4 °F 77% 29.78 in 10.0 mi SSE 5.8 mph - N/A   Clear
3:35 AM 64.4 °F 55.4 °F 73% 29.77 in 10.0 mi SSE 6.9 mph - N/A   Clear
3:55 AM 60.8 °F 55.4 °F 82% 29.77 in 10.0 mi ESE 8.1 mph - N/A   Clear
4:15 AM 60.8 °F 55.4 °F 82% 29.77 in 10.0 mi SE 6.9 mph - N/A   Clear
4:35 AM 59.0 °F 55.4 °F 88% 29.76 in 10.0 mi SSE 4.6 mph - N/A   Clear
4:55 AM 59.0 °F 55.4 °F 88% 29.76 in 10.0 mi ESE 5.8 mph - N/A   Clear
5:15 AM 59.0 °F 55.4 °F 88% 29.76 in 10.0 mi ESE 6.9 mph - N/A   Clear
5:35 AM 59.0 °F 55.4 °F 88% 29.76 in 10.0 mi SE 6.9 mph - N/A   Clear
5:55 AM 59.0 °F 55.4 °F 88% 29.77 in 10.0 mi Calm Calm - N/A   Clear
6:15 AM 59.0 °F 55.4 °F 88% 29.76 in 10.0 mi SE 5.8 mph - N/A   Clear
6:35 AM 59.0 °F 55.4 °F 88% 29.76 in 10.0 mi Calm Calm - N/A   Clear
6:55 AM 59.0 °F 55.4 °F 88% 29.76 in 10.0 mi Calm Calm - N/A   Clear
7:15 AM 57.2 °F 55.4 °F 94% 29.76 in 10.0 mi ESE 5.8 mph - N/A   Clear
7:35 AM 59.0 °F 55.4 °F 88% 29.77 in 10.0 mi ESE 4.6 mph - N/A   Partly Cloudy
7:55 AM 59.0 °F 55.4 °F 88% 29.77 in 10.0 mi Calm Calm - N/A   Partly Cloudy
8:15 AM 59.0 °F 55.4 °F 88% 29.77 in 10.0 mi ESE 4.6 mph - N/A   Clear
8:35 AM 59.0 °F 55.4 °F 88% 29.77 in 10.0 mi ESE 5.8 mph - N/A   Clear
8:55 AM 59.0 °F 55.4 °F 88% 29.78 in 10.0 mi Calm Calm - N/A   Clear
9:15 AM 60.8 °F 55.4 °F 82% 29.78 in 10.0 mi ESE 3.5 mph - N/A   Clear
9:35 AM 62.6 °F 55.4 °F 77% 29.78 in 10.0 mi East 3.5 mph - N/A   Clear
9:55 AM 64.4 °F 57.2 °F 77% 29.78 in 10.0 mi Calm Calm - N/A   Clear
10:15 AM 66.2 °F 57.2 °F 73% 29.78 in 10.0 mi Calm Calm - N/A   Clear
10:55 AM 68.0 °F 57.2 °F 68% 29.79 in 10.0 mi NNW 3.5 mph - N/A   Clear
11:15 AM 68.0 °F 59.0 °F 73% 29.81 in 10.0 mi North 9.2 mph - N/A   Clear
11:35 AM 69.8 °F 59.0 °F 68% 29.81 in 10.0 mi NNW 6.9 mph - N/A   Clear
11:55 AM 71.6 °F 59.0 °F 64% 29.81 in 10.0 mi North 10.4 mph - N/A   Clear
12:15 PM 71.6 °F 59.0 °F 64% 29.81 in 10.0 mi NE 13.8 mph - N/A   Clear
12:35 PM 71.6 °F 59.0 °F 64% 29.81 in 10.0 mi NNE 12.7 mph - N/A   Clear
12:55 PM 75.2 °F 57.2 °F 53% 29.81 in 10.0 mi ENE 15.0 mph - N/A   Clear
1:15 PM 75.2 °F 59.0 °F 57% 29.82 in 10.0 mi ENE 12.7 mph - N/A   Clear
1:35 PM 75.2 °F 57.2 °F 53% 29.82 in 10.0 mi NE 13.8 mph 20.7 mph N/A   Clear
1:55 PM 77.0 °F 59.0 °F 54% 29.83 in 10.0 mi ENE 11.5 mph 21.9 mph N/A   Clear
2:15 PM 77.0 °F 59.0 °F 54% 29.83 in 10.0 mi NE 12.7 mph 17.3 mph N/A   Partly Cloudy
2:35 PM 77.0 °F 57.2 °F 50% 29.84 in 10.0 mi North 16.1 mph 19.6 mph N/A   Scattered Clouds
2:55 PM 77.0 °F 57.2 °F 50% 29.84 in 10.0 mi NNE 18.4 mph 24.2 mph N/A   Partly Cloudy
3:15 PM 77.0 °F 57.2 °F 50% 29.86 in 10.0 mi North 19.6 mph 25.3 mph N/A   Clear
3:35 PM 75.2 °F 57.2 °F 53% 29.87 in 10.0 mi NNE 16.1 mph - N/A   Partly Cloudy
3:55 PM 75.2 °F 57.2 °F 53% 29.88 in 10.0 mi NE 19.6 mph 24.2 mph N/A   Partly Cloudy
4:15 PM 75.2 °F 55.4 °F 50% 29.89 in 10.0 mi NE 16.1 mph 20.7 mph N/A   Partly Cloudy
4:35 PM 69.8 °F 57.2 °F 64% 29.91 in 10.0 mi NE 17.3 mph 31.1 mph N/A Rain Light Rain
4:55 PM 71.6 °F 55.4 °F 57% 29.91 in 10.0 mi NE 18.4 mph 24.2 mph N/A   Mostly Cloudy
5:15 PM 69.8 °F 53.6 °F 56% 29.93 in 10.0 mi NE 18.4 mph 29.9 mph N/A   Partly Cloudy
5:35 PM 68.0 °F 50.0 °F 52% 29.94 in 10.0 mi NE 20.7 mph 27.6 mph N/A   Partly Cloudy
5:55 PM 68.0 °F 50.0 °F 52% 29.96 in 10.0 mi NE 15.0 mph 23.0 mph N/A   Clear
6:15 PM 68.0 °F 50.0 °F 52% 29.97 in 10.0 mi NE 13.8 mph 19.6 mph N/A   Clear
6:35 PM 68.0 °F 48.2 °F 49% 29.98 in 10.0 mi NE 12.7 mph 23.0 mph N/A   Clear
6:55 PM 68.0 °F 48.2 °F 49% 29.99 in 10.0 mi NE 12.7 mph 18.4 mph N/A   Clear
7:15 PM 66.2 °F 48.2 °F 52% 29.99 in 10.0 mi ENE 12.7 mph - N/A   Mostly Cloudy
7:35 PM 66.2 °F 48.2 °F 52% 30.00 in 10.0 mi NE 8.1 mph - N/A   Scattered Clouds
7:55 PM 64.4 °F 48.2 °F 56% 30.00 in 10.0 mi NE 10.4 mph - N/A   Clear
8:15 PM 62.6 °F 48.2 °F 59% 30.01 in 10.0 mi NE 10.4 mph - N/A   Clear
8:35 PM 62.6 °F 48.2 °F 59% 30.02 in 10.0 mi NE 9.2 mph - N/A   Partly Cloudy
8:55 PM 59.0 °F 48.2 °F 67% 30.03 in 10.0 mi ENE 5.8 mph - N/A   Clear
9:15 PM 57.2 °F 48.2 °F 72% 30.04 in 10.0 mi East 5.8 mph - N/A   Clear
9:35 PM 55.4 °F 48.2 °F 77% 30.04 in 10.0 mi ESE 4.6 mph - N/A   Clear
9:55 PM 53.6 °F 48.2 °F 82% 30.05 in 10.0 mi ESE 3.5 mph - N/A   Clear
10:15 PM 51.8 °F 46.4 °F 82% 30.06 in 10.0 mi NNE 3.5 mph - N/A   Clear
10:35 PM 53.6 °F 46.4 °F 77% 30.07 in 10.0 mi Calm Calm - N/A   Clear
10:55 PM 50.0 °F 46.4 °F 87% 30.08 in 10.0 mi Calm Calm - N/A   Clear
11:15 PM 48.2 °F 46.4 °F 93% 30.09 in 10.0 mi North 3.5 mph - N/A   Clear
11:35 PM 48.2 °F 46.4 °F 93% 30.10 in 10.0 mi North 3.5 mph - N/A   Clear
11:55 PM 48.2 °F 46.4 °F 93% 30.11 in 10.0 mi Calm Calm - N/A   Clear